[[{"header":{"parameterUnit":"m.s-1","parameterCategory":1,"la1":30.2991,"la2":30.254,"lo1":-89.0895,"lo2":-89.0444,"dy":0.0017,"dx":0.0017,"nx":28,"ny":28,"refTime":"2025-04-14T21:00:00:Z","depth":0,"parameterNumber":2,"parameterNumberName":"U-component_of_WINDS"},"data":[0,0,0,0,0,0,0,0,0,0,0,0,0,0,0,0,0,0,0,0,0,0,0,0,0,0,0,0,0,0,0,0,0,0,0,0,0,0,0,0,0,0,0,0,0,0,0,0,0,0,0,0,0,0,0,0,0,0,5.3008,5.301,0,5.3193,5.3195,5.3197,5.3109,5.3104,5.31,5.3095,5.3292,5.3301,5.3311,0,0,0,0,0,0,0,0,0,0,0,0,0,5.2586,5.2594,5.3007,5.301,5.3012,5.3192,5.3195,5.3197,5.311,5.3104,5.3098,5.3093,5.3289,5.33,5.3312,0,0,0,0,0,0,0,0,0,0,0,0,0,5.277,5.2597,5.3007,5.299,5.299,5.3192,5.3195,5.3198,5.3111,5.3104,5.3097,5.309,5.3285,5.3299,5.3313,5.3544,0,0,5.3358,5.3364,0,0,0,0,0,0,0,0,5.276,5.2786,5.299,5.2992,5.2992,5.312,5.3118,5.3314,5.3113,5.3066,5.3095,5.3087,5.3241,5.3259,5.3309,5.3554,5.3562,5.3359,5.3368,5.3374,5.3378,0,0,0,0,0,0,0,5.2747,5.2777,5.3081,5.2993,5.2995,5.2976,5.2994,5.3155,5.3191,5.3069,5.3063,5.3086,5.324,5.3296,5.3313,5.3565,5.3358,5.3371,5.338,5.3386,5.4009,5.4017,0,0,0,0,0,0,5.2734,5.2767,5.3075,5.3086,5.2856,5.2989,5.3009,5.3087,5.3189,5.3198,5.3092,5.3081,5.3274,5.3296,5.332,5.3597,5.3374,5.3387,5.3396,5.4002,5.4011,5.402,0,0,0,0,0,0,5.2725,5.2762,5.3067,5.2925,5.2963,5.3004,5.3091,5.3094,5.3149,5.3206,5.3213,5.3141,5.327,5.3299,5.3489,5.3603,5.3394,5.3407,5.3992,5.4005,5.4015,5.4154,0,0,0,0,0,0,5.2713,5.2759,5.2846,5.2928,5.297,5.3232,5.3098,5.3103,5.3173,5.3161,5.3254,5.3263,5.3266,5.3468,5.3503,5.3619,5.3418,5.3982,5.3998,5.4012,5.414,5.4169,5.4195,0,0,0,0,0,5.2698,5.2879,5.2851,5.2888,5.3079,5.3238,5.3263,5.3262,5.3183,5.3271,5.3308,5.326,5.3585,5.3488,5.3527,5.3649,5.3975,5.3993,5.4011,5.4127,5.4164,5.4194,0,0,0,0,0,0,5.2812,5.2889,5.2859,5.3071,5.3148,5.3223,5.3335,5.33,5.3404,5.3388,5.3384,5.3406,5.3602,5.3645,5.3535,5.3879,5.3768,5.3795,5.3844,5.3878,5.3905,5.3891,5.343,0,0,0,0,0,5.2861,5.2982,5.3044,5.3225,5.3265,5.3294,5.3363,5.3355,5.3436,5.3469,5.352,5.3603,5.3723,5.3803,5.3918,5.4145,5.4165,5.4249,5.4276,5.4299,5.4322,5.4446,5.4485,5.4078,5.4078,5.4077,0,0,5.2965,5.3022,5.3099,5.325,5.3309,5.3436,5.3322,5.3461,5.3556,5.3491,5.3673,5.3713,5.3805,5.4015,5.411,5.4057,5.4438,5.4321,5.4339,5.435,5.4469,5.4507,5.4541,5.409,5.4088,5.4086,0,0,5.3219,5.3274,5.3431,5.3493,5.3583,5.36,5.3638,5.3719,5.3742,5.3924,5.3878,5.3992,5.42,5.4267,5.4329,5.461,5.457,5.4647,5.4792,5.4913,5.4945,5.4973,5.5074,5.511,5.467,5.4671,5.4671,0,5.3338,5.3525,5.3517,5.366,5.3728,5.3673,5.3833,5.3894,5.4018,5.4068,5.4005,5.4265,5.4323,5.4548,5.4617,5.4668,5.4713,5.4637,5.4941,5.4969,5.4996,5.5092,5.513,5.4679,5.4678,5.4677,5.4677,0,5.3667,5.3798,5.3914,5.4033,5.4114,5.4265,5.4282,5.4366,5.4352,5.4376,5.4563,5.4631,5.4758,5.4811,5.4799,5.5035,5.4999,5.4939,5.4828,5.5043,5.5133,5.517,5.4692,5.4689,5.4686,5.4684,0,0,5.3998,5.4109,5.4152,5.4206,5.4302,5.4404,5.4554,5.4675,5.4748,5.4836,5.4962,5.514,5.5084,5.5155,5.515,5.5257,5.5475,5.5184,5.5186,5.5236,5.5741,5.5786,5.5828,5.5449,5.5456,5.5462,5.5733,0,5.4259,5.4517,5.4515,5.4756,5.4877,5.4827,5.4957,5.5032,5.506,5.5169,5.52,5.5326,5.5243,5.5285,5.5388,5.5427,5.5577,5.5407,5.5569,5.5574,5.5547,5.5875,5.5923,5.6176,5.5769,5.5775,5.5779,0,5.4598,5.4694,5.4947,5.5025,5.5076,5.5193,5.5305,5.5409,5.5493,5.5506,5.5584,5.5563,5.5718,5.5602,5.5815,5.57,5.5766,5.5795,5.5805,5.582,5.569,5.59,5.6257,5.6295,5.5834,5.583,5.5826,0,5.4815,5.5008,5.5184,5.5231,5.5327,5.541,5.5455,5.5531,5.5605,5.5704,5.5752,5.5868,5.5933,5.6024,5.6036,5.595,5.6252,5.6136,5.6268,5.6268,5.6334,5.633,5.6707,5.6377,5.6376,5.6375,5.6374,0,5.5107,5.5263,5.5282,5.5391,5.5565,5.5562,5.5735,5.5773,5.5841,5.5958,5.5922,5.6033,5.6041,5.6155,5.6166,5.6342,5.6371,5.6387,5.6388,5.6391,5.6389,5.6434,5.6417,5.6385,5.6383,5.6381,5.6379,0,5.5378,5.5397,5.5585,5.566,5.5682,5.5808,5.5873,5.5977,5.6001,5.6149,5.6184,5.6222,5.6355,5.6375,5.6532,5.6539,5.675,5.6733,5.6721,5.6719,5.6849,5.6837,5.7269,5.7326,5.6958,5.6962,5.6964,0,5.5563,5.5682,5.5769,5.5843,5.5891,5.6011,5.6086,5.6088,5.6167,5.6272,5.6365,5.6493,5.6596,5.6811,5.6854,5.6974,5.696,5.7103,5.6978,5.6976,5.6963,5.6955,5.6968,5.7127,5.7131,5.7135,5.7137,0,5.589,5.5894,5.6001,5.6113,5.6202,5.629,5.6374,5.6437,5.6451,5.6542,5.6676,5.6756,5.6914,5.7043,5.7162,5.721,5.7178,5.7176,5.7213,5.7217,5.7205,5.7213,5.6787,5.7166,5.7163,5.7161,5.716,5.7159,5.6125,5.6228,5.6305,5.6426,5.6489,5.6568,5.6669,5.6705,5.6816,5.6944,5.6939,5.7087,5.7169,5.7324,5.7381,5.7498,5.7451,5.7505,5.7518,5.7532,5.7544,5.7186,5.7519,5.7519,5.7518,5.7517,5.7517,0,5.645,5.6497,5.6608,5.6725,5.6821,5.6779,5.6869,5.6953,5.7082,5.7161,5.7262,5.7417,5.7542,5.7595,5.7718,5.7801,5.779,5.7834,5.7828,5.784,5.7578,5.7534,5.7841,5.7841,5.7841,5.7841,5.7841,5.7841,5.663,5.6803,5.6816,5.702,5.7066,5.7208,5.7264,5.7337,5.7399,5.7573,5.7675,5.7708,5.7777,5.7905,5.8018,5.8031,5.8078,5.8129,5.8135,5.7891,5.7858,5.7826,5.7785,5.814,5.814,5.8387,5.8389,5.8391]},{"header":{"parameterUnit":"m.s-1","parameterCategory":1,"la1":30.2991,"la2":30.254,"lo1":-89.0895,"lo2":-89.0444,"dy":0.0017,"dx":0.0017,"nx":28,"ny":28,"refTime":"2025-04-14T21:00:00:Z","depth":0,"parameterNumber":3,"parameterNumberName":"V-component_of_WINDS"},"data":[0,0,0,0,0,0,0,0,0,0,0,0,0,0,0,0,0,0,0,0,0,0,0,0,0,0,0,0,0,0,0,0,0,0,0,0,0,0,0,0,0,0,0,0,0,0,0,0,0,0,0,0,0,0,0,0,0,0,-0.6766,-0.6766,0,-0.6767,-0.6767,-0.6767,-0.6784,-0.6784,-0.6785,-0.6785,-0.6784,-0.6784,-0.6784,0,0,0,0,0,0,0,0,0,0,0,0,0,-0.6778,-0.6777,-0.6766,-0.6766,-0.6766,-0.6767,-0.6767,-0.6767,-0.6784,-0.6784,-0.6785,-0.6785,-0.6785,-0.6784,-0.6784,0,0,0,0,0,0,0,0,0,0,0,0,0,-0.6775,-0.6777,-0.6766,-0.6775,-0.6775,-0.6767,-0.6767,-0.6767,-0.6784,-0.6784,-0.6785,-0.6785,-0.6785,-0.6784,-0.6783,-0.6767,0,0,-0.6782,-0.6781,0,0,0,0,0,0,0,0,-0.6775,-0.6775,-0.6773,-0.6774,-0.6775,-0.6776,-0.6771,-0.6767,-0.6783,-0.678,-0.6785,-0.6786,-0.6781,-0.6781,-0.6779,-0.6767,-0.6767,-0.6782,-0.6781,-0.6781,-0.6781,0,0,0,0,0,0,0,-0.6775,-0.6775,-0.6767,-0.6773,-0.6774,-0.6778,-0.6778,-0.677,-0.6777,-0.6781,-0.6782,-0.6782,-0.6782,-0.678,-0.678,-0.6767,-0.6782,-0.6781,-0.6781,-0.678,-0.6741,-0.674,0,0,0,0,0,0,-0.6774,-0.6775,-0.6767,-0.6767,-0.6777,-0.6777,-0.6778,-0.6775,-0.6777,-0.6778,-0.6781,-0.6783,-0.6781,-0.678,-0.678,-0.676,-0.6781,-0.678,-0.678,-0.6741,-0.6741,-0.674,0,0,0,0,0,0,-0.6775,-0.6774,-0.6767,-0.6771,-0.677,-0.6776,-0.6773,-0.6775,-0.6773,-0.6778,-0.6779,-0.6779,-0.6781,-0.678,-0.677,-0.676,-0.678,-0.6779,-0.6742,-0.6741,-0.674,-0.6721,0,0,0,0,0,0,-0.6775,-0.6774,-0.6767,-0.6771,-0.677,-0.6757,-0.6773,-0.6774,-0.6772,-0.6774,-0.6775,-0.6776,-0.6782,-0.6771,-0.6769,-0.676,-0.6779,-0.6743,-0.6742,-0.674,-0.6723,-0.6719,-0.6717,0,0,0,0,0,-0.6775,-0.6762,-0.6767,-0.6766,-0.6763,-0.6757,-0.6756,-0.6763,-0.6771,-0.6765,-0.6768,-0.6776,-0.6762,-0.677,-0.6768,-0.6758,-0.6744,-0.6742,-0.6741,-0.6724,-0.672,-0.6717,0,0,0,0,0,0,-0.6756,-0.6762,-0.6768,-0.6756,-0.6756,-0.6759,-0.6752,-0.6759,-0.6756,-0.6758,-0.6766,-0.6766,-0.6754,-0.6755,-0.6764,-0.6742,-0.6754,-0.6752,-0.6742,-0.6738,-0.6736,-0.6735,-0.6778,0,0,0,0,0,-0.6751,-0.6746,-0.6751,-0.6739,-0.6739,-0.6745,-0.6743,-0.6749,-0.6749,-0.6748,-0.6751,-0.675,-0.6746,-0.6742,-0.6738,-0.6723,-0.6723,-0.6716,-0.6713,-0.671,-0.6708,-0.67,-0.6697,-0.6735,-0.6735,-0.6735,0,0,-0.6739,-0.6742,-0.6738,-0.6736,-0.6736,-0.6731,-0.6745,-0.6738,-0.6734,-0.6747,-0.6738,-0.6739,-0.6739,-0.6726,-0.6721,-0.6727,-0.6698,-0.6708,-0.6707,-0.6706,-0.6698,-0.6695,-0.6692,-0.6734,-0.6734,-0.6734,0,0,-0.6715,-0.6717,-0.6707,-0.6707,-0.6709,-0.6713,-0.6711,-0.6714,-0.6715,-0.6706,-0.6716,-0.6711,-0.6703,-0.6702,-0.6701,-0.6677,-0.6684,-0.6675,-0.666,-0.6652,-0.6649,-0.6647,-0.6638,-0.6634,-0.6674,-0.6674,-0.6674,0,-0.67,-0.6692,-0.6701,-0.6694,-0.6692,-0.6705,-0.6695,-0.6695,-0.6694,-0.6693,-0.67,-0.669,-0.6691,-0.6678,-0.6672,-0.6671,-0.6668,-0.6675,-0.6649,-0.6647,-0.6644,-0.6636,-0.6632,-0.6672,-0.6673,-0.6673,-0.6673,0,-0.6674,-0.6668,-0.666,-0.666,-0.6658,-0.6649,-0.6656,-0.6653,-0.6659,-0.6662,-0.6652,-0.6654,-0.6651,-0.6648,-0.6653,-0.6636,-0.664,-0.6648,-0.666,-0.6639,-0.6632,-0.6628,-0.6671,-0.6671,-0.6672,-0.6672,0,0,-0.6636,-0.6642,-0.6639,-0.6639,-0.6641,-0.6637,-0.6629,-0.6626,-0.6623,-0.6622,-0.6615,-0.6609,-0.6616,-0.6615,-0.662,-0.6614,-0.6594,-0.6623,-0.6623,-0.6617,-0.6575,-0.6568,-0.6564,-0.6599,-0.6599,-0.6598,-0.6574,0,-0.6612,-0.6599,-0.6607,-0.6593,-0.6587,-0.66,-0.6593,-0.6593,-0.6597,-0.6592,-0.6596,-0.6591,-0.6602,-0.6601,-0.6595,-0.6598,-0.6586,-0.66,-0.6592,-0.6592,-0.6591,-0.656,-0.6553,-0.653,-0.6571,-0.6571,-0.6571,0,-0.6582,-0.6581,-0.6566,-0.657,-0.6568,-0.6562,-0.656,-0.6556,-0.6557,-0.656,-0.6558,-0.6566,-0.6558,-0.657,-0.6559,-0.6569,-0.6567,-0.6568,-0.6567,-0.6566,-0.6579,-0.6557,-0.6523,-0.6519,-0.6566,-0.6566,-0.6567,0,-0.6556,-0.6551,-0.6541,-0.6541,-0.6545,-0.654,-0.6542,-0.6543,-0.6541,-0.654,-0.6538,-0.6536,-0.6534,-0.6532,-0.6538,-0.6547,-0.6526,-0.6539,-0.6528,-0.6527,-0.6522,-0.6522,-0.6486,-0.6522,-0.6522,-0.6522,-0.6522,0,-0.6528,-0.6518,-0.6529,-0.6523,-0.6513,-0.6522,-0.6511,-0.6514,-0.6516,-0.651,-0.6521,-0.6515,-0.6524,-0.652,-0.6525,-0.6515,-0.6514,-0.6516,-0.6517,-0.6514,-0.6514,-0.6512,-0.6513,-0.6521,-0.6521,-0.6521,-0.6521,0,-0.6496,-0.6504,-0.6494,-0.6499,-0.65,-0.6492,-0.6496,-0.6491,-0.6495,-0.6488,-0.6487,-0.6493,-0.6489,-0.6495,-0.6491,-0.6494,-0.648,-0.6484,-0.648,-0.6481,-0.6469,-0.647,-0.643,-0.6425,-0.6464,-0.6464,-0.6463,0,-0.6478,-0.6471,-0.6475,-0.6472,-0.6473,-0.6469,-0.6467,-0.6476,-0.6474,-0.6475,-0.6469,-0.6465,-0.6462,-0.6454,-0.6458,-0.6455,-0.6458,-0.6445,-0.6458,-0.6456,-0.6458,-0.6458,-0.6457,-0.6442,-0.6441,-0.6441,-0.6441,0,-0.6443,-0.6447,-0.6445,-0.6443,-0.6441,-0.644,-0.6439,-0.6437,-0.6446,-0.6443,-0.6438,-0.6436,-0.6432,-0.6428,-0.6426,-0.6427,-0.6435,-0.6437,-0.6434,-0.643,-0.6428,-0.6429,-0.6472,-0.6437,-0.6438,-0.6438,-0.6438,-0.6438,-0.6417,-0.6411,-0.6414,-0.641,-0.6411,-0.6411,-0.6406,-0.641,-0.6407,-0.6404,-0.641,-0.6404,-0.6405,-0.6404,-0.6404,-0.6399,-0.6405,-0.6401,-0.64,-0.6398,-0.6396,-0.6429,-0.6399,-0.6399,-0.6399,-0.6399,-0.6399,0,-0.6383,-0.6385,-0.6382,-0.6382,-0.6379,-0.6388,-0.6388,-0.6385,-0.638,-0.6381,-0.6378,-0.6373,-0.6369,-0.6373,-0.637,-0.6366,-0.6369,-0.6365,-0.6365,-0.6365,-0.6392,-0.6394,-0.6362,-0.6362,-0.6362,-0.6362,-0.6362,-0.6362,-0.6365,-0.6355,-0.636,-0.6351,-0.6354,-0.6348,-0.6348,-0.6347,-0.6348,-0.6342,-0.6339,-0.6342,-0.6344,-0.6342,-0.6338,-0.634,-0.6338,-0.6332,-0.6334,-0.6359,-0.6363,-0.6366,-0.6369,-0.6331,-0.6331,-0.6308,-0.6307,-0.6307]}]]